Stations météo

Publicité
Ajaccio, France (7761): Température de l'air & dewpoint: 20.05.2018 23:00:00 - 26.05.2018 23:00:00 (CEST)Ajaccio, France (7761): Température de l'air 5cm: 20.05.2018 23:00:00 - 26.05.2018 23:00:00 (CEST)Ajaccio, France (7761): Température de l'air -20cm & Température de l'air -100cm: 20.05.2018 23:00:00 - 26.05.2018 23:00:00 (CEST)Ajaccio, France (7761): Vitesse du vent & gusts: 20.05.2018 23:00:00 - 26.05.2018 23:00:00 (CEST)Ajaccio, France (7761): Direction du vent: 20.05.2018 23:00:00 - 26.05.2018 23:00:00 (CEST)Ajaccio, France (7761): reduced air pressure: 20.05.2018 23:00:00 - 26.05.2018 23:00:00 (CEST)Ajaccio, France (7761): visibility: 20.05.2018 23:00:00 - 26.05.2018 23:00:00 (CEST)Ajaccio, France (7761): Ensoleillement: 20.05.2018 23:00:00 - 26.05.2018 23:00:00 (CEST)Ajaccio, France (7761): Quantités de précipitations: 20.05.2018 23:00:00 - 26.05.2018 23:00:00 (CEST)
Date & Time tt [°C] td [°C] tt 5cm [°C] tt -20cm [°C] tt -100cm [°C] ff [km/h] ff [knt] fx [km/h] fx [knt] dd ppp [hPa] vv [km] sd [min] rr [mm]
26.05.2018 23:00:00 - - - - - - - - - - - - - -
26.05.2018 22:00:00 21,5 15,1 20,2 25,0 20,0 7 4 9 5 NE 1017,6 12 0 0,0
26.05.2018 21:00:00 22,8 13,8 21,1 24,9 20,0 4 2 8 5 NNE 1017,0 26 0 0,0
26.05.2018 20:00:00 23,3 15,1 23,6 24,7 20,0 4 2 11 6 WNW 1016,9 49 39 0,0
26.05.2018 19:00:00 25,1 13,6 28,4 24,4 20,0 9 5 12 7 SSW 1016,8 39 60 0,0
26.05.2018 18:00:00 26,5 11,8 27,1 24,1 20,0 10 5 19 11 S 1017,0 27 60 0,0
26.05.2018 17:00:00 25,1 16,5 27,2 23,6 19,9 15 8 25 13 SSW 1017,3 25 60 0,0
26.05.2018 16:00:00 25,9 17,3 27,9 23,2 19,9 18 10 31 17 S 1017,1 23 60 0,0
26.05.2018 15:00:00 26,0 16,8 30,9 22,9 19,9 21 11 31 17 S 1017,3 26 60 0,0
26.05.2018 14:00:00 27,2 17,9 33,7 22,6 19,9 14 8 20 11 SSW 1017,5 20 60 0,0
26.05.2018 13:00:00 26,4 16,6 33,9 22,4 19,9 11 6 18 10 SSW 1017,7 39 60 0,0
26.05.2018 12:00:00 24,3 17,8 32,2 22,3 19,9 9 5 16 8 SW 1018,1 38 60 0,0
26.05.2018 11:00:00 23,5 16,8 31,1 22,3 19,9 7 4 10 5 WSW 1018,1 44 60 0,0
26.05.2018 10:00:00 22,9 16,0 29,2 22,4 19,9 5 3 9 5 WSW 1018,2 46 60 0,0
26.05.2018 09:00:00 22,4 15,5 23,8 22,5 19,9 0 0 9 5 N 1018,3 39 60 0,0
26.05.2018 08:00:00 20,0 14,8 18,2 22,7 19,9 6 4 12 7 NE 1017,8 42 60 0,0
26.05.2018 07:00:00 17,7 13,6 15,9 23,0 19,9 9 5 15 8 NE 1017,2 37 7 0,0
26.05.2018 06:00:00 17,1 13,4 15,9 23,1 19,9 11 6 20 11 NE 1016,7 37 0 0,0
26.05.2018 05:00:00 16,8 13,5 15,4 23,3 19,8 14 8 19 11 NNE 1016,7 35 0 0,0
26.05.2018 04:00:00 16,4 13,7 15,2 23,5 19,9 14 8 20 11 NNE 1017,2 32 0 0,0
26.05.2018 03:00:00 15,8 13,6 15,0 23,7 19,9 10 6 16 9 NE 1017,3 28 0 0,0
26.05.2018 02:00:00 15,9 13,4 15,1 23,9 19,8 9 5 13 7 NE 1017,3 26 0 0,0
26.05.2018 01:00:00 16,5 13,8 15,5 24,0 19,8 8 4 14 7 NE 1017,2 25 0 0,0
26.05.2018 00:00:00 17,0 13,5 16,0 24,2 19,8 10 5 13 7 NE 1016,9 21 0 0,0
25.05.2018 23:00:00 17,9 14,0 16,3 24,2 19,8 4 2 10 5 NE 1017,0 19 0 0,0
25.05.2018 22:00:00 19,1 14,8 16,8 24,2 19,8 5 3 8 5 NE 1016,9 24 0 0,0
25.05.2018 21:00:00 20,1 14,9 18,8 24,1 19,8 3 2 12 6 SE 1016,1 33 14 0,0
25.05.2018 20:00:00 22,0 16,5 23,4 23,9 19,8 6 3 14 8 SSW 1015,6 38 60 0,0
25.05.2018 19:00:00 23,6 16,9 26,2 23,6 19,8 11 6 17 9 SSW 1015,3 24 60 0,0
25.05.2018 18:00:00 23,8 17,8 25,4 23,2 19,8 12 7 18 10 SSW 1015,6 21 60 0,0
25.05.2018 17:00:00 23,5 17,5 25,6 22,8 19,8 14 7 19 10 SSW 1016,0 20 60 0,0
25.05.2018 16:00:00 23,6 16,9 26,4 22,4 19,8 11 6 19 11 SSW 1016,3 21 60 0,0
25.05.2018 15:00:00 23,2 17,6 28,6 22,0 19,8 15 8 21 11 SSW 1016,7 23 60 0,0
25.05.2018 14:00:00 23,1 17,3 31,4 21,7 19,7 14 7 19 10 SW 1016,7 26 60 0,0
25.05.2018 13:00:00 22,5 16,5 30,6 21,5 19,7 13 7 18 10 SW 1016,9 30 60 0,0
25.05.2018 12:00:00 22,3 16,6 31,1 21,4 19,7 13 7 17 9 SW 1017,0 35 60 0,0
25.05.2018 11:00:00 22,1 15,7 29,9 21,5 19,7 11 6 16 9 SW 1017,1 43 60 0,0
25.05.2018 10:00:00 20,6 14,0 27,6 21,6 19,7 10 5 14 8 WSW 1016,9 20 60 0,0
25.05.2018 09:00:00 20,5 13,9 21,9 21,8 19,7 2 1 8 4 SW 1016,9 20 60 0,0
25.05.2018 08:00:00 17,4 13,9 15,4 21,9 19,7 6 3 11 6 NE 1016,7 25 60 0,0
25.05.2018 07:00:00 14,5 12,5 12,9 22,1 19,7 9 5 13 7 NE 1017,0 21 34 0,0
25.05.2018 06:00:00 13,7 12,4 12,9 22,3 19,7 8 4 10 5 NE 1016,8 11 0 0,0
25.05.2018 05:00:00 14,4 12,8 13,4 22,5 19,7 7 4 11 6 NE 1016,6 16 0 0,0
25.05.2018 04:00:00 14,6 13,0 13,7 22,7 19,7 7 4 13 7 NNE 1016,8 15 0 0,0
25.05.2018 03:00:00 14,8 13,2 13,9 22,9 19,7 8 5 12 6 NE 1017,3 13 0 0,0
25.05.2018 02:00:00 15,0 13,4 14,1 23,1 19,7 6 3 10 5 NE 1017,5 8 0 0,0
25.05.2018 01:00:00 16,0 14,4 14,8 23,2 19,7 8 5 11 6 ENE 1017,6 9 0 0,0
25.05.2018 00:00:00 16,4 14,6 15,4 23,3 19,6 7 4 10 6 NE 1017,8 11 0 0,0
24.05.2018 23:00:00 17,1 14,9 15,9 23,4 19,6 7 4 10 5 ENE 1017,8 12 0 0,0
24.05.2018 22:00:00 17,9 15,3 16,8 23,4 19,7 5 3 7 4 ENE 1017,7 11 0 0,0
24.05.2018 21:00:00 19,1 15,8 17,4 23,3 19,6 3 2 13 7 SSE 1017,1 22 17 0,0
24.05.2018 20:00:00 21,3 16,0 22,6 23,1 19,6 9 5 14 8 SSW 1016,9 35 60 0,0
24.05.2018 19:00:00 22,2 16,7 25,2 22,9 19,6 11 6 18 10 SSW 1017,0 26 60 0,0
24.05.2018 18:00:00 22,1 15,9 23,9 22,6 19,6 14 7 21 11 SSW 1017,5 22 60 0,0
24.05.2018 17:00:00 22,5 16,3 24,5 22,3 19,6 11 6 23 12 SSW 1017,5 20 55 0,0
24.05.2018 16:00:00 22,3 17,2 24,4 22,0 19,6 18 10 28 15 S 1018,2 21 44 0,0
24.05.2018 15:00:00 23,3 17,5 24,7 21,7 19,6 20 11 28 15 S 1018,6 23 47 0,0
24.05.2018 14:00:00 22,4 17,3 27,3 21,4 19,6 19 10 27 14 S 1019,0 25 60 0,0
24.05.2018 13:00:00 21,8 16,7 29,4 21,2 19,6 17 9 22 12 SW 1019,4 30 60 0,0
24.05.2018 12:00:00 22,1 16,1 29,8 21,1 19,6 16 8 22 12 SW 1019,5 37 60 0,0
24.05.2018 11:00:00 21,0 14,2 29,1 21,2 19,6 11 6 21 11 SW 1019,2 48 60 0,0
24.05.2018 10:00:00 20,6 14,7 26,8 21,3 19,5 8 4 11 6 SW 1019,0 60 60 0,0
24.05.2018 09:00:00 19,7 12,0 20,8 21,5 19,6 4 2 8 4 NE 1019,1 60 60 0,0
24.05.2018 08:00:00 16,5 12,5 15,0 21,6 19,6 6 4 10 5 NNE 1019,2 43 60 0,0
24.05.2018 07:00:00 13,8 12,2 11,8 21,8 19,6 7 4 12 6 ENE 1018,8 38 34 0,0
24.05.2018 06:00:00 12,7 11,4 11,9 22,1 19,6 8 4 10 5 NE 1018,7 15 0 0,0
24.05.2018 05:00:00 13,2 12,1 12,3 22,2 19,5 6 4 10 5 NE 1018,9 18 0 0,0
24.05.2018 04:00:00 13,7 12,6 12,9 22,4 19,6 7 4 10 6 NNE 1019,3 11 0 0,0
24.05.2018 03:00:00 14,2 12,9 13,4 22,6 19,5 8 4 12 6 NE 1019,4 12 0 0,0
24.05.2018 02:00:00 14,9 13,6 14,0 22,7 19,6 9 5 12 6 NE 1019,7 15 0 0,0
24.05.2018 01:00:00 15,3 13,8 14,4 22,9 19,5 8 5 10 6 NE 1020,0 13 0 0,0
24.05.2018 00:00:00 16,5 14,5 15,2 22,9 19,5 4 2 6 3 E 1020,2 15 0 0,0
23.05.2018 23:00:00 18,1 14,8 16,6 23,0 19,5 4 2 6 4 E 1019,8 26 0 0,0
23.05.2018 22:00:00 18,7 14,8 18,1 23,0 19,5 3 2 11 6 W 1019,2 47 0 0,0
23.05.2018 21:00:00 19,1 14,6 18,7 22,9 19,5 5 3 19 11 NW 1018,4 56 7 0,0
23.05.2018 20:00:00 20,1 15,3 20,3 22,7 19,5 10 5 23 13 NW 1018,2 59 27 0,0
23.05.2018 19:00:00 20,6 15,4 21,4 22,5 19,5 18 10 25 14 NW 1017,8 55 0 0,0
23.05.2018 18:00:00 21,3 14,7 22,9 22,2 19,5 16 8 26 14 NW 1017,6 30 25 0,0
23.05.2018 17:00:00 22,3 15,2 24,7 21,7 19,5 6 3 21 11 WSW 1017,5 54 30 0,0
23.05.2018 16:00:00 23,3 15,9 27,2 21,3 19,5 14 8 21 12 SW 1017,4 29 60 0,0
23.05.2018 15:00:00 24,1 16,4 29,9 21,0 19,5 16 8 22 12 SW 1017,4 32 60 0,0
23.05.2018 14:00:00 23,3 15,4 29,9 20,7 19,5 9 5 22 12 WSW 1017,4 36 60 0,0
23.05.2018 13:00:00 22,7 15,3 29,5 20,5 19,5 11 6 16 9 SSW 1017,5 42 60 0,0
23.05.2018 12:00:00 21,2 16,4 28,0 20,4 19,5 12 6 17 9 SSW 1017,5 45 60 0,0
23.05.2018 11:00:00 20,7 15,9 27,8 20,4 19,5 11 6 16 9 SW 1017,3 56 60 0,0
23.05.2018 10:00:00 19,7 15,3 19,3 20,5 19,5 5 3 11 6 SW 1017,1 60 21 0,0
23.05.2018 09:00:00 16,9 14,7 16,1 20,6 19,5 6 4 9 5 NE 1017,1 54 0 0,0
23.05.2018 08:00:00 16,1 14,5 16,2 20,7 19,5 5 3 10 5 NE 1016,6 47 0 0,0
23.05.2018 07:00:00 15,6 14,1 15,1 20,8 19,5 5 3 9 5 ENE 1016,0 44 24 0,0
23.05.2018 06:00:00 15,4 14,3 14,7 20,9 19,5 6 3 8 4 ENE 1015,5 25 0 0,0
23.05.2018 05:00:00 15,1 14,1 14,9 21,0 19,5 5 3 11 6 NE 1015,4 27 0 0,0
23.05.2018 04:00:00 15,2 14,4 14,4 21,2 19,5 3 2 9 5 NE 1015,5 20 0 0,0
23.05.2018 03:00:00 15,5 14,5 14,5 21,3 19,5 3 2 9 5 NNE 1015,5 15 0 0,0
23.05.2018 02:00:00 15,7 14,2 14,8 21,4 19,5 7 4 11 6 NE 1015,6 57 0 0,0
23.05.2018 01:00:00 16,0 14,7 15,4 21,5 19,5 5 3 11 6 NE 1015,6 40 0 0,0
23.05.2018 00:00:00 15,9 14,6 15,2 21,6 19,5 8 4 10 6 ENE 1015,7 54 0 0,0
22.05.2018 23:00:00 15,8 14,5 15,0 21,6 19,5 6 3 10 5 E 1015,5 45 0 0,0
22.05.2018 22:00:00 16,8 15,1 15,3 21,6 19,5 3 2 6 3 NE 1014,9 18 0 0,0
22.05.2018 21:00:00 17,9 15,0 17,1 21,6 19,5 5 3 9 5 NE 1014,3 49 0 0,0
22.05.2018 20:00:00 18,6 14,3 19,5 21,6 19,5 5 3 13 7 NNE 1014,0 60 33 0,0
22.05.2018 19:00:00 18,2 15,4 17,1 21,5 19,5 9 5 18 10 E 1013,7 52 23 0,0
22.05.2018 18:00:00 17,5 14,6 16,9 21,4 19,5 7 4 14 7 ENE 1013,7 30 0 0,0
22.05.2018 17:00:00 18,0 16,3 16,9 21,2 19,5 6 3 19 11 N 1013,8 37 0 0,2
22.05.2018 16:00:00 17,2 15,2 17,3 21,0 19,5 11 6 24 13 WSW 1013,8 3,8 0 3,2
22.05.2018 15:00:00 19,0 15,1 20,5 20,7 19,5 16 8 25 14 WSW 1013,7 9 9 0,0
22.05.2018 14:00:00 21,4 15,9 28,0 20,5 19,5 19 10 25 14 SW 1013,1 46 58 0,0
22.05.2018 13:00:00 19,8 15,6 22,9 20,2 19,5 12 6 18 10 WSW 1013,2 60 20 0,0
22.05.2018 12:00:00 19,7 14,5 24,2 20,1 19,5 9 5 15 8 WSW 1013,0 60 3 0,0
22.05.2018 11:00:00 19,8 15,0 23,1 20,1 19,5 8 5 14 8 SW 1012,8 60 55 0,0
22.05.2018 10:00:00 18,6 14,7 20,8 20,2 19,5 5 3 9 5 W 1012,7 56 34 0,0
22.05.2018 09:00:00 17,3 15,5 16,8 20,3 19,5 4 2 11 6 NNE 1012,6 52 7 0,0
22.05.2018 08:00:00 16,3 15,5 15,6 20,4 19,4 6 3 9 5 NE 1012,5 34 0 0,0
22.05.2018 07:00:00 15,9 15,3 15,3 20,5 19,4 6 3 8 4 ENE 1012,1 11 0 0,4
22.05.2018 06:00:00 15,7 15,1 15,1 20,6 19,4 4 2 7 4 SE 1011,8 10 0 4,1
22.05.2018 05:00:00 15,9 15,3 15,4 20,8 19,4 0 0 7 4 N 1011,6 4,3 0 7,5
22.05.2018 04:00:00 16,0 15,4 15,4 20,9 19,3 2 1 5 3 SSE 1011,5 4,5 0 3,4
22.05.2018 03:00:00 16,2 15,6 15,6 21,0 19,3 2 1 8 5 S 1011,6 4,2 0 0,6
22.05.2018 02:00:00 16,1 15,5 15,6 21,2 19,3 7 4 9 5 NE 1011,5 7 0 0,0
22.05.2018 01:00:00 16,4 15,6 15,9 21,2 19,3 4 2 6 3 NNE 1012,0 11 0 0,0
22.05.2018 00:00:00 16,5 15,7 15,6 21,3 19,3 3 1 6 3 ENE 1012,1 16 0 0,0
21.05.2018 23:00:00 16,7 15,7 16,1 21,4 19,3 0 0 5 3 N 1012,2 4,5 0 0,0
21.05.2018 22:00:00 16,9 15,9 15,6 21,5 19,3 2 1 4 2 N 1011,8 3,1 0 0,0
21.05.2018 21:00:00 16,6 15,0 16,2 21,6 19,3 0 0 5 3 N 1011,2 18 0 0,0
21.05.2018 20:00:00 17,1 15,6 16,8 21,6 19,3 2 1 4 2 S 1011,2 26 0 0,0
21.05.2018 19:00:00 17,0 15,7 17,0 21,7 19,2 2 1 5 3 E 1011,2 27 0 0,2
21.05.2018 18:00:00 17,0 16,2 16,4 21,8 19,2 4 2 9 5 E 1011,6 10 0 2,4
21.05.2018 17:00:00 16,7 15,9 16,0 21,7 19,2 7 4 29 16 SSW 1011,8 3,1 0 11,4
21.05.2018 16:00:00 17,8 16,5 16,9 21,6 19,2 11 6 28 15 S 1012,2 1,1 0 5,2
21.05.2018 15:00:00 19,9 16,1 20,2 21,5 19,2 16 8 20 11 SW 1011,3 19 1 0,0
21.05.2018 14:00:00 20,4 15,8 21,9 21,5 19,2 13 7 18 10 WSW 1011,7 28 0 0,0
21.05.2018 13:00:00 20,4 15,4 23,9 21,5 19,2 6 4 11 6 SW 1011,7 46 0 0,0
21.05.2018 12:00:00 19,9 15,3 19,7 21,5 19,1 5 3 10 6 SW 1012,1 37 0 0,0
21.05.2018 11:00:00 20,3 15,3 21,6 21,5 19,1 8 4 16 9 SSW 1012,3 42 4 0,0
21.05.2018 10:00:00 19,5 12,7 22,3 21,6 19,1 5 3 9 5 SW 1012,2 44 0 0,0
21.05.2018 09:00:00 20,2 12,2 17,8 21,8 19,1 2 1 9 5 ESE 1012,1 56 22 0,0
21.05.2018 08:00:00 16,3 11,4 15,5 22,0 19,1 6 4 11 6 NE 1011,9 54 0 0,0
21.05.2018 07:00:00 15,3 10,5 14,2 22,2 19,1 6 3 16 8 NE 1011,8 56 0 0,0
21.05.2018 06:00:00 14,6 10,8 13,6 22,4 19,1 10 5 15 8 NE 1011,8 53 0 0,0
21.05.2018 05:00:00 14,6 10,8 13,9 22,6 19,1 10 5 15 8 NE 1011,9 52 0 0,0
21.05.2018 04:00:00 14,3 10,9 13,6 22,8 19,1 10 5 17 9 NE 1012,0 50 0 0,0
21.05.2018 03:00:00 14,3 10,9 13,5 23,0 19,1 11 6 14 7 NE 1012,0 40 0 0,0
21.05.2018 02:00:00 15,6 11,4 14,4 23,1 19,0 6 4 15 8 ENE 1012,2 42 0 0,0
21.05.2018 01:00:00 16,4 12,4 14,8 23,3 19,0 9 5 13 7 NE 1012,7 37 0 0,0
21.05.2018 00:00:00 17,0 12,9 16,1 23,4 19,0 7 4 15 8 NE 1012,8 37 0 0,0
20.05.2018 23:00:00 17,8 13,5 16,8 23,5 19,0 10 5 16 9 NNE 1012,9 27 0 0,0

tt = Température de l'air
td = dewpoint
tt 5cm = Température de l'air 5cm
tt -20cm = Température de l'air -20cm
tt -100cm = Température de l'air -100cm
ff = Vitesse du vent
fx = gusts
dd = Direction du vent
ppp = reduced air pressure
vv = visibility
sd = Ensoleillement
rr = Quantités de précipitations

stations d'obs. à proximité